This is the latest recevied weather packets stored in our database for station/object SV9TNF-57. If no packets are shown the sender has not sent any weather packets the latest 10 day(s).
| Time | Temp. | Humidity | Pressure | Rain* | Wind** | Luminosity | Snow |
|---|---|---|---|---|---|---|---|
| 1788387536 | 27.22° C | 41% | 994.2 hPa | 0 mm | 0.89 m/s, 286° | - | - |
| 1788387235 | 27.22° C | 41% | 994.2 hPa | 0 mm | 0 m/s | - | - |
| 1788386935 | 27.22° C | 41% | 994.3 hPa | 0 mm | 0 m/s | - | - |
| 1788386635 | 27.22° C | 41% | 994.3 hPa | 0 mm | 0.45 m/s, 212° | - | - |
| 1788386335 | 26.67° C | 41% | 994.5 hPa | 0 mm | 2.24 m/s, 276° | - | - |
| 1788386035 | 26.67° C | 42% | 994.4 hPa | 0 mm | 0.89 m/s, 282° | - | - |
| 1788385735 | 26.67° C | 42% | 994.5 hPa | 0 mm | 3.58 m/s, 271° | - | - |
| 1788385435 | 26.67° C | 42% | 994.4 hPa | 0 mm | 0 m/s | - | - |
| 1788385136 | 26.67° C | 42% | 994.6 hPa | 0 mm | 1.34 m/s, 264° | - | - |
| 1788384835 | 26.67° C | 42% | 994.5 hPa | 0 mm | 1.34 m/s, 281° | - | - |
| 1788384535 | 26.67° C | 42% | 994.4 hPa | 0 mm | 0.89 m/s, 281° | - | - |
| 1788384235 | 26.67° C | 42% | 994.6 hPa | 0 mm | 0.45 m/s, 295° | - | - |
| 1788383935 | 27.22° C | 42% | 994.8 hPa | 0 mm | 0 m/s | - | - |
| 1788383634 | 27.22° C | 41% | 994.7 hPa | 0 mm | 0.45 m/s, 282° | - | - |
| 1788383335 | 26.67° C | 42% | 994.7 hPa | 0 mm | 0.89 m/s, 263° | - | - |
| 1788383034 | 26.67° C | 42% | 994.7 hPa | 0 mm | 0 m/s | - | - |
| 1788382734 | 27.22° C | 42% | 994.6 hPa | 0 mm | 0.45 m/s, 332° | - | - |
| 1788382434 | 27.22° C | 42% | 994.6 hPa | 0 mm | 0.89 m/s, 272° | - | - |
| 1788382134 | 27.22° C | 42% | 994.7 hPa | 0 mm | 0.45 m/s, 273° | - | - |
| 1788381834 | 27.22° C | 42% | 995 hPa | 0 mm | 3.58 m/s, 254° | - | - |
| 1788381534 | 26.67° C | 42% | 994.8 hPa | 0 mm | 3.58 m/s, 280° | - | - |
| 1788381233 | 26.67° C | 43% | 994.9 hPa | 0 mm | 0 m/s | - | - |
| 1788380933 | 26.67° C | 43% | 994.8 hPa | 0 mm | 2.68 m/s, 285° | - | - |
| 1788380634 | 26.67° C | 44% | 994.8 hPa | 0 mm | 2.68 m/s, 267° | - | - |
| 1788380333 | 26.67° C | 44% | 994.9 hPa | 0 mm | 1.79 m/s, 272° | - | - |
* Rain latest hour (hover to see other rain measurements)
** Current wind speed in m/s (hover to see current wind gust speed)